This is the latest recevied weather packets stored in our database for station/object KC8JWT. If no packets are shown the sender has not sent any weather packets the latest 10 day(s).
| Time | Temp. | Humidity | Pressure | Rain* | Wind** | Luminosity | Snow |
|---|---|---|---|---|---|---|---|
| 1778114515 | 14.44° C | 59% | 1012.2 hPa | 0 mm | - | 0 W/m² | - |
| 1778114211 | 14.44° C | 61% | 1012.6 hPa | 0 mm | - | 0 W/m² | - |
| 1778113912 | 14.44° C | 70% | 1012.3 hPa | 0 mm | - | 0 W/m² | - |
| 1778113608 | 14.44° C | 68% | 1012.2 hPa | 0 mm | - | 1 W/m² | - |
| 1778113304 | 14.44° C | 68% | 1012.1 hPa | 0 mm | - | 2 W/m² | - |
| 1778113001 | 14.44° C | 69% | 1012.3 hPa | 0 mm | - | 3 W/m² | - |
| 1778112699 | 14.44° C | 72% | 1011.8 hPa | 0 mm | - | 4 W/m² | - |
| 1778112395 | 15° C | 75% | 1011.9 hPa | 0 mm | - | 5 W/m² | - |
| 1778112090 | 15° C | 71% | 1011.9 hPa | 0 mm | - | 5 W/m² | - |
| 1778111788 | 15° C | 69% | 1012 hPa | 0 mm | - | 6 W/m² | - |
| 1778111487 | 15° C | 67% | 1012 hPa | 0 mm | - | 10 W/m² | - |
| 1778111185 | 15° C | 67% | 1012 hPa | 0 mm | - | 11 W/m² | - |
| 1778110882 | 15° C | 68% | 1011.9 hPa | 0 mm | - | 11 W/m² | - |
| 1778110579 | 15° C | 66% | 1011.6 hPa | 0 mm | - | 18 W/m² | - |
| 1778110276 | 15° C | 66% | 1011.7 hPa | 0 mm | - | 20 W/m² | - |
| 1778109972 | 15.56° C | 64% | 1011.8 hPa | 0 mm | - | 18 W/m² | - |
| 1778109667 | 15.56° C | 63% | 1012.2 hPa | 0 mm | - | 15 W/m² | - |
| 1778109365 | 15.56° C | 68% | 1012.4 hPa | 0 mm | - | 16 W/m² | - |
| 1778109063 | 15.56° C | 69% | 1012.5 hPa | 0 mm | - | 17 W/m² | - |
| 1778108759 | 15.56° C | 68% | 1012.3 hPa | 0 mm | - | 26 W/m² | - |
| 1778108457 | 15.56° C | 65% | 1012.2 hPa | 0 mm | - | 33 W/m² | - |
| 1778108153 | 15.56° C | 63% | 1012.2 hPa | 0 mm | - | 40 W/m² | - |
| 1778107850 | 15.56° C | 63% | 1012 hPa | 0 mm | - | 40 W/m² | - |
| 1778107547 | 15.56° C | 61% | 1012 hPa | 0 mm | - | 38 W/m² | - |
| 1778107243 | 15.56° C | 63% | 1012.1 hPa | 0 mm | - | 40 W/m² | - |
* Rain latest hour (hover to see other rain measurements)
** Current wind speed in m/s (hover to see current wind gust speed)